Home > Products > State Listing > Idaho Data
Latest:
 RWRID |
  [top]

000
ASUS45 KBOI 010410
RWRID

IDAHO REGIONAL WEATHER ROUNDUP
NATIONAL WEATHER SERVICE BOISE ID
1000 PM MDT THU JUN 30 2016

NOTE: "FAIR" INDICATES FEW OR NO CLOUDS BELOW 12000 FEET
WITH NO SIGNIFICANT WEATHER AND/OR OBSTRUCTIONS TO VISIBILITY

IDZ012-014-010500-
SOUTHWEST IDAHO


CITY           SKY/WX    TMP DP  RH WIND       PRES   REMARKS
BOISE          PTCLDY    87  45  23 W6        29.88R
CALDWELL       PTCLDY    83  48  29 W8        29.88R
MOUNTAIN HOME  PTCLDY    81  51  35 E28G37    29.92R
$$

IDZ016-017-010500-
SOUTHCENTRAL IDAHO


CITY           SKY/WX    TMP DP  RH WIND       PRES   REMARKS
BURLEY         CLOUDY    68  51  54 NE14G25   30.11R
JEROME         CLOUDY    69  52  54 E18G31    30.03S
TWIN FALLS     CLOUDY    65  53  65 E13G24    30.05F
$$

IDZ019>023-010500-
SOUTHEAST IDAHO


CITY           SKY/WX    TMP DP  RH WIND       PRES   REMARKS
IDAHO FALLS    CLOUDY    66  52  60 S8        30.14S
POCATELLO      CLOUDY    67  55  65 CALM      30.16R
REXBURG        CLOUDY    65  52  62 SW7       30.13S
$$

IDZ006-010-011-018-031-032-010500-
CENTRAL IDAHO MOUNTAINS


CITY           SKY/WX    TMP DP  RH WIND       PRES   REMARKS
MCCALL         CLEAR     74  47  38 N8        30.08R
HAILEY         MOCLDY    63  55  77 NW7       30.19R
STANLEY          N/A     62  43  49 CALM      30.21R
SALMON         CLOUDY    70  46  43 E8        30.05R
CHALLIS        CLOUDY    67  51  56 S6        30.12F
$$

IDZ002-004-006-007-026-010500-
NORTHERN IDAHO


CITY           SKY/WX    TMP DP  RH WIND       PRES   REMARKS
LEWISTON       CLEAR     81  41  24 NW5       29.91R
LOWELL           N/A     70  60  70 CALM      29.92R
COEUR D`ALENE  CLEAR     73  50  43 CALM      29.90S
MULLAN PASS    CLEAR     61  39  44 NW6       30.16S
$$





000
ASUS45 KBOI 010310
RWRID

IDAHO REGIONAL WEATHER ROUNDUP
NATIONAL WEATHER SERVICE BOISE ID
900 PM MDT THU JUN 30 2016

NOTE: "FAIR" INDICATES FEW OR NO CLOUDS BELOW 12000 FEET
WITH NO SIGNIFICANT WEATHER AND/OR OBSTRUCTIONS TO VISIBILITY

IDZ012-014-010400-
SOUTHWEST IDAHO


CITY           SKY/WX    TMP DP  RH WIND       PRES   REMARKS
BOISE          PTCLDY    92  42  17 W12       29.86S
CALDWELL       PTCLDY    89  48  24 W12       29.85R
MOUNTAIN HOME  MOCLDY    93  44  18 N7        29.88R
$$

IDZ016-017-010400-
SOUTHCENTRAL IDAHO


CITY           SKY/WX    TMP DP  RH WIND       PRES   REMARKS
BURLEY         CLOUDY    67  51  56 NE13      30.09S
JEROME         TSTM      68  56  65 E20       30.10R
TWIN FALLS     LGT RAIN  68  54  60 NE14G24   30.08R
$$

IDZ019>023-010400-
SOUTHEAST IDAHO


CITY           SKY/WX    TMP DP  RH WIND       PRES   REMARKS
IDAHO FALLS    CLOUDY    63  55  75 NW3       30.14R
POCATELLO      LGT RAIN  66  58  75 N7        30.13R
REXBURG        CLOUDY    68  50  52 E3        30.13R
$$

IDZ006-010-011-018-031-032-010400-
CENTRAL IDAHO MOUNTAINS


CITY           SKY/WX    TMP DP  RH WIND       PRES   REMARKS
MCCALL         CLEAR     78  46  32 N9        30.07R
HAILEY         MOCLDY    63  54  72 NW12      30.16R
STANLEY          N/A     67  42  40 W3        30.20R
SALMON         CLOUDY    73  46  38 E8        30.04R
CHALLIS        CLOUDY    67  54  63 NW6       30.13R
$$

IDZ002-004-006-007-026-010400-
NORTHERN IDAHO


CITY           SKY/WX    TMP DP  RH WIND       PRES   REMARKS
LEWISTON       CLEAR     87  41  19 NW7       29.90S
LOWELL           N/A     73  60  63 N5        29.89R
COEUR D`ALENE  CLEAR     81  52  36 W5        29.89S
MULLAN PASS    CLEAR     65  45  48 VRB6      30.16S
$$





000
ASUS45 KBOI 010210
RWRID

IDAHO REGIONAL WEATHER ROUNDUP
NATIONAL WEATHER SERVICE BOISE ID
800 PM MDT THU JUN 30 2016

NOTE: "FAIR" INDICATES FEW OR NO CLOUDS BELOW 12000 FEET
WITH NO SIGNIFICANT WEATHER AND/OR OBSTRUCTIONS TO VISIBILITY

IDZ012-014-010300-
SOUTHWEST IDAHO


CITY           SKY/WX    TMP DP  RH WIND       PRES   REMARKS
BOISE          SUNNY     95  41  15 NW13      29.86R HX  91
CALDWELL       SUNNY     92  54  27 NW8       29.84R HX  90
MOUNTAIN HOME  PTSUNNY   95  38  13 NW13      29.86R HX  91
$$

IDZ016-017-010300-
SOUTHCENTRAL IDAHO


CITY           SKY/WX    TMP DP  RH WIND       PRES   REMARKS
BURLEY         CLOUDY    75  48  38 NE9       30.05R
JEROME         CLOUDY    73  50  44 NE23G37   30.03R
TWIN FALLS     CLOUDY    78  43  28 S26G36    29.97F
$$

IDZ019>023-010300-
SOUTHEAST IDAHO


CITY           SKY/WX    TMP DP  RH WIND       PRES   REMARKS
IDAHO FALLS    CLOUDY    70  51  51 N6        30.13R
POCATELLO      TSTM      72  55  55 NE6       30.10R
REXBURG        CLOUDY    68  50  52 E6        30.12R
$$

IDZ006-010-011-018-031-032-010300-
CENTRAL IDAHO MOUNTAINS


CITY           SKY/WX    TMP DP  RH WIND       PRES   REMARKS
MCCALL         SUNNY     81  48  31 N13       30.05R
HAILEY         PTSUNNY   64  55  72 NW12      30.14F
STANLEY          N/A     71  41  33 MISG      30.17R
SALMON         CLOUDY    72  48  43 N6        30.06R
CHALLIS        CLOUDY    69  50  50 E5        30.12R
$$

IDZ002-004-006-007-026-010300-
NORTHERN IDAHO


CITY           SKY/WX    TMP DP  RH WIND       PRES   REMARKS
LEWISTON       SUNNY     90  41  18 N12       29.90S
LOWELL           N/A     77  60  55 CALM      29.88S
COEUR D`ALENE  SUNNY     84  46  26 SW7       29.89F
MULLAN PASS    SUNNY     68  47  46 NW7       30.16S
$$





000
ASUS45 KBOI 010110
RWRID

IDAHO REGIONAL WEATHER ROUNDUP
NATIONAL WEATHER SERVICE BOISE ID
700 PM MDT THU JUN 30 2016

NOTE: "FAIR" INDICATES FEW OR NO CLOUDS BELOW 12000 FEET
WITH NO SIGNIFICANT WEATHER AND/OR OBSTRUCTIONS TO VISIBILITY

IDZ012-014-010200-
SOUTHWEST IDAHO


CITY           SKY/WX    TMP DP  RH WIND       PRES   REMARKS
BOISE          SUNNY     95  44  17 W12       29.85S HX  91
CALDWELL       SUNNY     95  54  25 NW8       29.82F HX  93
MOUNTAIN HOME  PTSUNNY   98  44  16 NW16G24   29.85R HX  93
$$

IDZ016-017-010200-
SOUTHCENTRAL IDAHO


CITY           SKY/WX    TMP DP  RH WIND       PRES   REMARKS
BURLEY         CLOUDY    78  49  35 N9        30.00R
JEROME         CLOUDY    85  57  38 S9        29.97R
TWIN FALLS     PTSUNNY   81  44  27 SW22G30   29.98R
$$

IDZ019>023-010200-
SOUTHEAST IDAHO


CITY           SKY/WX    TMP DP  RH WIND       PRES   REMARKS
IDAHO FALLS    CLOUDY    73  50  44 NE3       30.11R
POCATELLO      CLOUDY    75  51  43 NE10      30.07R
REXBURG        LGT RAIN  72  49  44 N12       30.10F
$$

IDZ006-010-011-018-031-032-010200-
CENTRAL IDAHO MOUNTAINS


CITY           SKY/WX    TMP DP  RH WIND       PRES   REMARKS
MCCALL         SUNNY     84  45  25 NW9       30.03F
HAILEY         TSTM      61  55  82 NW6       30.15R
STANLEY          N/A     76  42  29 NE10G17   30.11F
SALMON         CLOUDY    79  48  34 SE8       30.03S
CHALLIS        LGT RAIN  71  50  47 NW5       30.10F
$$

IDZ002-004-006-007-026-010200-
NORTHERN IDAHO


CITY           SKY/WX    TMP DP  RH WIND       PRES   REMARKS
LEWISTON       SUNNY     92  43  18 W12       29.90F
LOWELL           N/A     82  57  42 CALM      29.88S
COEUR D`ALENE  SUNNY     88  48  25 SW6       29.90F
MULLAN PASS    SUNNY     71  49  45 VRB5      30.16F
$$





000
ASUS45 KBOI 010110
RWRID

IDAHO REGIONAL WEATHER ROUNDUP
NATIONAL WEATHER SERVICE BOISE ID
700 PM MDT THU JUN 30 2016

NOTE: "FAIR" INDICATES FEW OR NO CLOUDS BELOW 12000 FEET
WITH NO SIGNIFICANT WEATHER AND/OR OBSTRUCTIONS TO VISIBILITY

IDZ012-014-010200-
SOUTHWEST IDAHO


CITY           SKY/WX    TMP DP  RH WIND       PRES   REMARKS
BOISE          SUNNY     95  44  17 W12       29.85S HX  91
CALDWELL       SUNNY     95  54  25 NW8       29.82F HX  93
MOUNTAIN HOME  PTSUNNY   98  44  16 NW16G24   29.85R HX  93
$$

IDZ016-017-010200-
SOUTHCENTRAL IDAHO


CITY           SKY/WX    TMP DP  RH WIND       PRES   REMARKS
BURLEY         CLOUDY    78  49  35 N9        30.00R
JEROME         CLOUDY    85  57  38 S9        29.97R
TWIN FALLS     PTSUNNY   81  44  27 SW22G30   29.98R
$$

IDZ019>023-010200-
SOUTHEAST IDAHO


CITY           SKY/WX    TMP DP  RH WIND       PRES   REMARKS
IDAHO FALLS    CLOUDY    73  50  44 NE3       30.11R
POCATELLO      CLOUDY    75  51  43 NE10      30.07R
REXBURG        LGT RAIN  72  49  44 N12       30.10F
$$

IDZ006-010-011-018-031-032-010200-
CENTRAL IDAHO MOUNTAINS


CITY           SKY/WX    TMP DP  RH WIND       PRES   REMARKS
MCCALL         SUNNY     84  45  25 NW9       30.03F
HAILEY         TSTM      61  55  82 NW6       30.15R
STANLEY          N/A     76  42  29 NE10G17   30.11F
SALMON         CLOUDY    79  48  34 SE8       30.03S
CHALLIS        LGT RAIN  71  50  47 NW5       30.10F
$$

IDZ002-004-006-007-026-010200-
NORTHERN IDAHO


CITY           SKY/WX    TMP DP  RH WIND       PRES   REMARKS
LEWISTON       SUNNY     92  43  18 W12       29.90F
LOWELL           N/A     82  57  42 CALM      29.88S
COEUR D`ALENE  SUNNY     88  48  25 SW6       29.90F
MULLAN PASS    SUNNY     71  49  45 VRB5      30.16F
$$





000
ASUS45 KBOI 010010
RWRID

IDAHO REGIONAL WEATHER ROUNDUP
NATIONAL WEATHER SERVICE BOISE ID
600 PM MDT THU JUN 30 2016

NOTE: "FAIR" INDICATES FEW OR NO CLOUDS BELOW 12000 FEET
WITH NO SIGNIFICANT WEATHER AND/OR OBSTRUCTIONS TO VISIBILITY

IDZ012-014-010100-
SOUTHWEST IDAHO


CITY           SKY/WX    TMP DP  RH WIND       PRES   REMARKS
BOISE          SUNNY     97  45  16 NW13      29.85F HX  93
CALDWELL       SUNNY     96  51  21 NW10      29.83F HX  93
MOUNTAIN HOME  MOSUNNY   98  45  16 N10       29.84F HX  93
$$

IDZ016-017-010100-
SOUTHCENTRAL IDAHO


CITY           SKY/WX    TMP DP  RH WIND       PRES   REMARKS
BURLEY         CLOUDY    76  47  35 SW5       29.92F
JEROME         CLOUDY    89  54  30 SE9       29.93F
TWIN FALLS     CLOUDY    88  43  20 S9        29.94F
$$

IDZ019>023-010100-
SOUTHEAST IDAHO


CITY           SKY/WX    TMP DP  RH WIND       PRES   REMARKS
IDAHO FALLS    LGT RAIN  70  49  47 NW22G36   30.08F
POCATELLO      CLOUDY    79  48  33 N16G25    30.06R
REXBURG        CLOUDY    71  49  45 NW8G21    30.11R
$$

IDZ006-010-011-018-031-032-010100-
CENTRAL IDAHO MOUNTAINS


CITY           SKY/WX    TMP DP  RH WIND       PRES   REMARKS
MCCALL         MOSUNNY   83  45  26 W8        30.05F
HAILEY         CLOUDY    68  52  56 W17G29    30.01F
STANLEY          N/A     81  41  24 VRB5      30.12F
SALMON         PTSUNNY   73  48  40 SW12      30.03S
CHALLIS        CLOUDY    71  51  49 N12       30.12F
$$

IDZ002-004-006-007-026-010100-
NORTHERN IDAHO


CITY           SKY/WX    TMP DP  RH WIND       PRES   REMARKS
LEWISTON       SUNNY     92  45  19 NW5       29.91F
LOWELL           N/A     91  56  30 CALM      29.88F
COEUR D`ALENE  SUNNY     88  48  25 W9        29.92F
MULLAN PASS    SUNNY     72  48  42 NW8       30.17F
$$





000
ASUS45 KBOI 302310
RWRID

IDAHO REGIONAL WEATHER ROUNDUP
NATIONAL WEATHER SERVICE BOISE ID
500 PM MDT THU JUN 30 2016

NOTE: "FAIR" INDICATES FEW OR NO CLOUDS BELOW 12000 FEET
WITH NO SIGNIFICANT WEATHER AND/OR OBSTRUCTIONS TO VISIBILITY

IDZ012-014-010000-
SOUTHWEST IDAHO


CITY           SKY/WX    TMP DP  RH WIND       PRES   REMARKS
BOISE          SUNNY     95  45  17 W13       29.87F HX  91
CALDWELL       SUNNY     95  50  21 NW9       29.86F HX  92
MOUNTAIN HOME  SUNNY     98  44  15 NW12G17   29.86F HX  94
$$

IDZ016-017-010000-
SOUTHCENTRAL IDAHO


CITY           SKY/WX    TMP DP  RH WIND       PRES   REMARKS
BURLEY         CLOUDY    74  47  38 S23G33    29.99S
JEROME         CLOUDY    90  51  26 E10       29.96F
TWIN FALLS     CLOUDY    81  52  36 SE7       29.97F
$$

IDZ019>023-010000-
SOUTHEAST IDAHO


CITY           SKY/WX    TMP DP  RH WIND       PRES   REMARKS
IDAHO FALLS    CLOUDY    83  51  33 SW14      30.07S
POCATELLO      CLOUDY    86  48  26 E7        30.04F
REXBURG        CLOUDY    82  49  31 S13       30.07F
$$

IDZ006-010-011-018-031-032-010000-
CENTRAL IDAHO MOUNTAINS


CITY           SKY/WX    TMP DP  RH WIND       PRES   REMARKS
MCCALL         MOSUNNY   85  45  24 W9        30.06F
HAILEY         PTSUNNY   79  48  34 NW20G29   30.09S
STANLEY          N/A     75  46  35 CALM      30.15S
SALMON         CLOUDY    72  48  43 SW21G26   30.03S
CHALLIS        CLOUDY    70  52  52 N14G24    30.14R
$$

IDZ002-004-006-007-026-010000-
NORTHERN IDAHO


CITY           SKY/WX    TMP DP  RH WIND       PRES   REMARKS
LEWISTON       SUNNY     92  46  20 VRB5      29.93F
LOWELL           N/A     92  54  27 VRB5      29.90F HX  90
COEUR D`ALENE  SUNNY     88  50  27 SW6       29.95F
MULLAN PASS    MOSUNNY   73  47  39 VRB7      30.19S
$$





000
ASUS45 KBOI 302210
RWRID

IDAHO REGIONAL WEATHER ROUNDUP
NATIONAL WEATHER SERVICE BOISE ID
400 PM MDT THU JUN 30 2016

NOTE: "FAIR" INDICATES FEW OR NO CLOUDS BELOW 12000 FEET
WITH NO SIGNIFICANT WEATHER AND/OR OBSTRUCTIONS TO VISIBILITY

IDZ012-014-302300-
SOUTHWEST IDAHO


CITY           SKY/WX    TMP DP  RH WIND       PRES   REMARKS
BOISE          SUNNY     95  46  18 W9        29.89F HX  91
CALDWELL       SUNNY     95  51  22 VRB5      29.88F HX  92
MOUNTAIN HOME  SUNNY     97  50  20 W10       29.88F HX  93
$$

IDZ016-017-302300-
SOUTHCENTRAL IDAHO


CITY           SKY/WX    TMP DP  RH WIND       PRES   REMARKS
BURLEY         PTSUNNY   80  55  42 S9        29.99R
JEROME         PTSUNNY   91  46  21 VRB7      29.98S
TWIN FALLS     CLOUDY    86  53  32 NE3       29.99S
$$

IDZ019>023-302300-
SOUTHEAST IDAHO


CITY           SKY/WX    TMP DP  RH WIND       PRES   REMARKS
IDAHO FALLS    CLOUDY    86  50  28 SW13      30.07F
POCATELLO      MOSUNNY   88  48  25 SE14      30.05F
REXBURG        CLOUDY    85  42  22 SW8       30.08F
$$

IDZ006-010-011-018-031-032-302300-
CENTRAL IDAHO MOUNTAINS


CITY           SKY/WX    TMP DP  RH WIND       PRES   REMARKS
MCCALL         SUNNY     86  40  19 W9        30.07F
HAILEY         PTSUNNY   82  52  34 SE9G20    30.09F
STANLEY          N/A     80  44  27 NE7       30.15F
SALMON         CLOUDY    72  52  49 W5        30.03R
CHALLIS        LGT RAIN  67  54  63 N9        30.12S
$$

IDZ002-004-006-007-026-302300-
NORTHERN IDAHO


CITY           SKY/WX    TMP DP  RH WIND       PRES   REMARKS
LEWISTON       SUNNY     91  47  21 VRB7      29.95F
LOWELL           N/A     90  54  29 SE8       29.91F
COEUR D`ALENE  SUNNY     86  52  30 W10       29.97F
MULLAN PASS    MOSUNNY   73  48  41 VRB7      30.19F
$$





000
ASUS45 KBOI 302110
RWRID

IDAHO REGIONAL WEATHER ROUNDUP
NATIONAL WEATHER SERVICE BOISE ID
300 PM MDT THU JUN 30 2016

NOTE: "FAIR" INDICATES FEW OR NO CLOUDS BELOW 12000 FEET
WITH NO SIGNIFICANT WEATHER AND/OR OBSTRUCTIONS TO VISIBILITY

IDZ012-014-302200-
SOUTHWEST IDAHO


CITY           SKY/WX    TMP DP  RH WIND       PRES   REMARKS
BOISE          FAIR      93  46  19 W9        29.93F
CALDWELL       FAIR      94  51  23 NW5       29.91F HX  91
MOUNTAIN HOME  FAIR      95  51  22 VRB5      29.92F HX  92
$$

IDZ016-017-302200-
SOUTHCENTRAL IDAHO


CITY           SKY/WX    TMP DP  RH WIND       PRES   REMARKS
BURLEY         FAIR      87  49  26 E12       29.98F
JEROME         FAIR      92  44  19 VRB6      29.98F
TWIN FALLS     FAIR      88  48  25 NE9       29.99F
$$

IDZ019>023-302200-
SOUTHEAST IDAHO


CITY           SKY/WX    TMP DP  RH WIND       PRES   REMARKS
IDAHO FALLS    CLOUDY    85  43  22 SE8       30.09F
POCATELLO      SUNNY     89  49  25 E10       30.06F
REXBURG        CLOUDY    83  44  25 SW9       30.10F
$$

IDZ006-010-011-018-031-032-302200-
CENTRAL IDAHO MOUNTAINS


CITY           SKY/WX    TMP DP  RH WIND       PRES   REMARKS
MCCALL         FAIR      85  43  22 MISG      30.09F
HAILEY         MOSUNNY   84  52  32 SE8G21    30.10F
STANLEY          N/A     78  43  28 S8        30.17F
SALMON         CLOUDY    81  50  34 NW5       30.00R
CHALLIS        CLOUDY    73  46  38 S16G29    30.12R
$$

IDZ002-004-006-007-026-302200-
NORTHERN IDAHO


CITY           SKY/WX    TMP DP  RH WIND       PRES   REMARKS
LEWISTON       FAIR      91  47  21 W12       29.97F
LOWELL           N/A     89  54  30 VRB6      29.93F
COEUR D`ALENE  FAIR      84  54  34 W12       29.99F
MULLAN PASS    FAIR      75  50  41 CALM      30.21F
$$





000
ASUS45 KBOI 302010
RWRID

IDAHO REGIONAL WEATHER ROUNDUP
NATIONAL WEATHER SERVICE BOISE ID
200 PM MDT THU JUN 30 2016

NOTE: "FAIR" INDICATES FEW OR NO CLOUDS BELOW 12000 FEET
WITH NO SIGNIFICANT WEATHER AND/OR OBSTRUCTIONS TO VISIBILITY

IDZ012-014-302100-
SOUTHWEST IDAHO


CITY           SKY/WX    TMP DP  RH WIND       PRES   REMARKS
BOISE          SUNNY     92  47  21 NW9       29.95F
CALDWELL       SUNNY     92  52  25 W7        29.94F
MOUNTAIN HOME  SUNNY     94  52  23 E7        29.95F HX  91
$$

IDZ016-017-302100-
SOUTHCENTRAL IDAHO


CITY           SKY/WX    TMP DP  RH WIND       PRES   REMARKS
BURLEY         SUNNY     90  52  27 E12       30.01F
JEROME         SUNNY     90  48  23 E10       30.02F
TWIN FALLS     SUNNY     90  51  26 N9        30.02F
$$

IDZ019>023-302100-
SOUTHEAST IDAHO


CITY           SKY/WX    TMP DP  RH WIND       PRES   REMARKS
IDAHO FALLS    CLOUDY    85  45  24 S14       30.11F
POCATELLO      MOSUNNY   88  49  25 E6        30.08F
REXBURG        SUNNY     81  48  31 SE7       30.11F
$$

IDZ006-010-011-018-031-032-302100-
CENTRAL IDAHO MOUNTAINS


CITY           SKY/WX    TMP DP  RH WIND       PRES   REMARKS
MCCALL         MOSUNNY   83  44  25 VRB5      30.11F
HAILEY         MOSUNNY   84  48  28 SE7       30.13F
STANLEY          N/A     78  49  35 VRB7      30.18F
SALMON         SUNNY     84  46  26 N3        30.01F
CHALLIS        MOSUNNY   82  42  24 W5        30.09F
$$

IDZ002-004-006-007-026-302100-
NORTHERN IDAHO


CITY           SKY/WX    TMP DP  RH WIND       PRES   REMARKS
LEWISTON       SUNNY     88  47  24 VRB6      29.99F
LOWELL           N/A     87  54  32 VRB5      29.96F
COEUR D`ALENE  SUNNY     82  54  36 SW13      30.01F
MULLAN PASS    SUNNY     71  49  45 VRB6      30.22S
$$





000
ASUS45 KBOI 301910
RWRID

IDAHO REGIONAL WEATHER ROUNDUP
NATIONAL WEATHER SERVICE BOISE ID
100 PM MDT THU JUN 30 2016

NOTE: "FAIR" INDICATES FEW OR NO CLOUDS BELOW 12000 FEET
WITH NO SIGNIFICANT WEATHER AND/OR OBSTRUCTIONS TO VISIBILITY

IDZ012-014-302000-
SOUTHWEST IDAHO


CITY           SKY/WX    TMP DP  RH WIND       PRES   REMARKS
BOISE          SUNNY     89  48  24 W9        29.98F
CALDWELL       SUNNY     89  50  26 W6        29.96F
MOUNTAIN HOME  SUNNY     92  51  24 VRB3      29.97F
$$

IDZ016-017-302000-
SOUTHCENTRAL IDAHO


CITY           SKY/WX    TMP DP  RH WIND       PRES   REMARKS
BURLEY         SUNNY     86  52  30 E15       30.04F
JEROME         SUNNY     89  48  24 E15       30.05F
TWIN FALLS     SUNNY     87  53  31 NE9       30.05F
$$

IDZ019>023-302000-
SOUTHEAST IDAHO


CITY           SKY/WX    TMP DP  RH WIND       PRES   REMARKS
IDAHO FALLS    MOSUNNY   82  49  31 E14       30.14F
POCATELLO      MOSUNNY   86  49  27 NE10G20   30.12F
REXBURG        MOSUNNY   76  51  41 SE8       30.14F
$$

IDZ006-010-011-018-031-032-302000-
CENTRAL IDAHO MOUNTAINS


CITY           SKY/WX    TMP DP  RH WIND       PRES   REMARKS
MCCALL         SUNNY     83  45  26 W7        30.13F
HAILEY         MOSUNNY   82  52  34 SE9       30.14F
STANLEY          N/A     77  39  25 VRB3      30.21F
SALMON         SUNNY     81  50  34 N7        30.05F
CHALLIS        SUNNY     82  44  26 CALM      30.11F
$$

IDZ002-004-006-007-026-302000-
NORTHERN IDAHO


CITY           SKY/WX    TMP DP  RH WIND       PRES   REMARKS
LEWISTON       SUNNY     87  49  26 VRB6      30.01F
LOWELL           N/A     84  53  34 S9G16     29.98F
COEUR D`ALENE  SUNNY     81  54  39 SE9       30.02F
MULLAN PASS    SUNNY     70  44  39 NW6       30.22S
$$





000
ASUS45 KBOI 301810
RWRID

IDAHO REGIONAL WEATHER ROUNDUP
NATIONAL WEATHER SERVICE BOISE ID
1200 PM MDT THU JUN 30 2016

NOTE: "FAIR" INDICATES FEW OR NO CLOUDS BELOW 12000 FEET
WITH NO SIGNIFICANT WEATHER AND/OR OBSTRUCTIONS TO VISIBILITY

IDZ012-014-301900-
SOUTHWEST IDAHO


CITY           SKY/WX    TMP DP  RH WIND       PRES   REMARKS
BOISE          SUNNY     85  50  29 NW6       30.00F
CALDWELL       SUNNY     87  49  26 VRB7      29.98F
MOUNTAIN HOME  MOSUNNY   90  50  25 NE6       29.99F
$$

IDZ016-017-301900-
SOUTHCENTRAL IDAHO


CITY           SKY/WX    TMP DP  RH WIND       PRES   REMARKS
BURLEY         SUNNY     83  51  33 E15       30.07S
JEROME         SUNNY     86  50  28 E14       30.07S
TWIN FALLS     SUNNY     83  56  39 NE8       30.06S
$$

IDZ019>023-301900-
SOUTHEAST IDAHO


CITY           SKY/WX    TMP DP  RH WIND       PRES   REMARKS
IDAHO FALLS    CLOUDY    80  49  33 E14       30.18R
POCATELLO      MOSUNNY   82  54  37 N14       30.14R
REXBURG        CLOUDY    71  55  56 NE8       30.19S
$$

IDZ006-010-011-018-031-032-301900-
CENTRAL IDAHO MOUNTAINS


CITY           SKY/WX    TMP DP  RH WIND       PRES   REMARKS
MCCALL         SUNNY     80  46  30 VRB3      30.14R
HAILEY         MOSUNNY   81  52  36 S7        30.16S
STANLEY          N/A     75  47  36 VRB3      30.23F
SALMON         SUNNY     79  50  36 SW3       30.07F
CHALLIS        SUNNY     79  43  27 VRB3      30.15F
$$

IDZ002-004-006-007-026-301900-
NORTHERN IDAHO


CITY           SKY/WX    TMP DP  RH WIND       PRES   REMARKS
LEWISTON       SUNNY     84  50  30 NE6       30.03S
LOWELL           N/A     82  53  36 SE6G17    29.99F
COEUR D`ALENE  SUNNY     75  54  46 SE13      30.03R
MULLAN PASS    SUNNY     69  46  43 CALM      30.22S
$$





000
ASUS45 KBOI 301710
RWRID

IDAHO REGIONAL WEATHER ROUNDUP
NATIONAL WEATHER SERVICE BOISE ID
1100 AM MDT THU JUN 30 2016

NOTE: "FAIR" INDICATES FEW OR NO CLOUDS BELOW 12000 FEET
WITH NO SIGNIFICANT WEATHER AND/OR OBSTRUCTIONS TO VISIBILITY

IDZ012-014-301800-
SOUTHWEST IDAHO


CITY           SKY/WX    TMP DP  RH WIND       PRES   REMARKS
BOISE          SUNNY     80  49  33 W7        30.01R
CALDWELL       SUNNY     83  49  30 W9        29.99S
MOUNTAIN HOME  MOSUNNY   88  50  27 VRB3      30.00S
$$

IDZ016-017-301800-
SOUTHCENTRAL IDAHO


CITY           SKY/WX    TMP DP  RH WIND       PRES   REMARKS
BURLEY         MOSUNNY   79  53  40 E15       30.07S
JEROME         MOSUNNY   84  52  33 E17G23    30.07R
TWIN FALLS     MOSUNNY   78  55  44 E8        30.06F
$$

IDZ019>023-301800-
SOUTHEAST IDAHO


CITY           SKY/WX    TMP DP  RH WIND       PRES   REMARKS
IDAHO FALLS    PTSUNNY   74  51  44 E13       30.17F
POCATELLO      PTSUNNY   81  50  33 E9        30.13F
REXBURG        PTSUNNY   71  53  52 CALM      30.19R
$$

IDZ006-010-011-018-031-032-301800-
CENTRAL IDAHO MOUNTAINS


CITY           SKY/WX    TMP DP  RH WIND       PRES   REMARKS
MCCALL         SUNNY     78  44  29 CALM      30.13S
HAILEY         MOSUNNY   77  52  41 CALM      30.16F
STANLEY          N/A     71  48  43 VRB3      30.25F
SALMON         CLOUDY    73  50  43 SW3       30.11F
CHALLIS        SUNNY     76  44  32 VRB5      30.17F
$$

IDZ002-004-006-007-026-301800-
NORTHERN IDAHO


CITY           SKY/WX    TMP DP  RH WIND       PRES   REMARKS
LEWISTON       SUNNY     80  50  34 CALM      30.03F
LOWELL           N/A     80  53  39 VRB5      30.01F
COEUR D`ALENE  SUNNY     73  52  46 S13       30.03S
MULLAN PASS    SUNNY     68  44  42 NW3       30.22R
$$





000
ASUS45 KBOI 301710
RWRID

IDAHO REGIONAL WEATHER ROUNDUP
NATIONAL WEATHER SERVICE BOISE ID
1100 AM MDT THU JUN 30 2016

NOTE: "FAIR" INDICATES FEW OR NO CLOUDS BELOW 12000 FEET
WITH NO SIGNIFICANT WEATHER AND/OR OBSTRUCTIONS TO VISIBILITY

IDZ012-014-301800-
SOUTHWEST IDAHO


CITY           SKY/WX    TMP DP  RH WIND       PRES   REMARKS
BOISE          SUNNY     80  49  33 W7        30.01R
CALDWELL       SUNNY     83  49  30 W9        29.99S
MOUNTAIN HOME  MOSUNNY   88  50  27 VRB3      30.00S
$$

IDZ016-017-301800-
SOUTHCENTRAL IDAHO


CITY           SKY/WX    TMP DP  RH WIND       PRES   REMARKS
BURLEY         MOSUNNY   79  53  40 E15       30.07S
JEROME         MOSUNNY   84  52  33 E17G23    30.07R
TWIN FALLS     MOSUNNY   78  55  44 E8        30.06F
$$

IDZ019>023-301800-
SOUTHEAST IDAHO


CITY           SKY/WX    TMP DP  RH WIND       PRES   REMARKS
IDAHO FALLS    PTSUNNY   74  51  44 E13       30.17F
POCATELLO      PTSUNNY   81  50  33 E9        30.13F
REXBURG        PTSUNNY   71  53  52 CALM      30.19R
$$

IDZ006-010-011-018-031-032-301800-
CENTRAL IDAHO MOUNTAINS


CITY           SKY/WX    TMP DP  RH WIND       PRES   REMARKS
MCCALL         SUNNY     78  44  29 CALM      30.13S
HAILEY         MOSUNNY   77  52  41 CALM      30.16F
STANLEY          N/A     71  48  43 VRB3      30.25F
SALMON         CLOUDY    73  50  43 SW3       30.11F
CHALLIS        SUNNY     76  44  32 VRB5      30.17F
$$

IDZ002-004-006-007-026-301800-
NORTHERN IDAHO


CITY           SKY/WX    TMP DP  RH WIND       PRES   REMARKS
LEWISTON       SUNNY     80  50  34 CALM      30.03F
LOWELL           N/A     80  53  39 VRB5      30.01F
COEUR D`ALENE  SUNNY     73  52  46 S13       30.03S
MULLAN PASS    SUNNY     68  44  42 NW3       30.22R
$$





    US Dept of Commerce
    National Oceanic and Atmospheric Administration
    National Weather Service
    1325 East West Highway
    Silver Spring, MD 20910
    Page Author: NWS Internet Services Team
Disclaimer
Information Quality
Credits
Glossary
Privacy Policy
Freedom of Information Act (FOIA)
About Us
Career Opportunities